Location: Cedar Brake
(32.2526°N, 97.8459°W)
Time: 09:03:11
(UTC+00:00)

Cosmos 1821 Rocket - Pass Details

Date: 22 April 2026
Orbit: 945 x 1003 km, 82.9° (Epoch: 15 May)

Event Time Altitude Azimuth Distance (km) Brightness Sun altitude
Rises 02:03:25 0° 176° (S) 3,644 6.7 -12.4°
Reaches altitude 10° 02:05:54 10° 173° (S) 2,709 6.0 -12.9°
Maximum altitude 02:12:03 65° 93° (E) 1,072 4.0 -14.1°
Drops below altitude 10° 02:18:18 10° 12° (NNE) 2,761 6.5 -15.3°
Sets 02:20:52 0° 10° (N) 3,719 7.3 -15.8°
